Time,TemperatureF,DewpointF,PressureIn,WindDirection,WindDirectionDegrees,WindSpeedMPH,WindSpeedGustMPH,Humidity,HourlyPrecipIn,Conditions,Clouds,dailyrainin,SoftwareType,DateUTC
2013-01-14 00:00:00,16.1,3.2,30.41,NNW,333,0.0,3.0,56,0.00,,---,0.00,VWS V14.01,2013-01-14 06:00:00,
2013-01-14 00:01:00,16.1,3.2,30.41,NNW,333,0.0,3.0,56,0.00,,---,0.00,VWS V14.01,2013-01-14 06:01:00,
2013-01-14 00:06:00,16.1,3.6,30.41,NNW,333,2.0,3.0,57,0.00,,---,0.00,VWS V14.01,2013-01-14 06:06:00,
2013-01-14 00:11:00,16.1,3.6,30.41,NNW,334,0.0,3.0,57,0.00,,---,0.00,VWS V14.01,2013-01-14 06:11:00,
2013-01-14 00:16:00,16.1,3.6,30.42,NNW,334,0.0,3.0,57,0.00,,---,0.00,VWS V14.01,2013-01-14 06:16:00,
2013-01-14 00:21:00,16.1,3.6,30.42,NNW,334,0.0,3.0,57,0.00,,---,0.00,VWS V14.01,2013-01-14 06:21:00,
2013-01-14 00:26:00,16.1,3.6,30.42,NNW,334,0.0,3.0,57,0.00,,---,0.00,VWS V14.01,2013-01-14 06:26:00,
2013-01-14 00:30:00,15.9,3.4,30.43,NNW,334,0.0,3.0,57,0.00,,---,0.00,VWS V14.01,2013-01-14 06:30:00,
2013-01-14 00:31:00,15.9,3.4,30.43,NNW,334,0.0,3.0,57,0.00,,---,0.00,VWS V14.01,2013-01-14 06:31:00,
2013-01-14 00:36:00,15.9,3.4,30.43,NNW,334,0.0,0.0,57,0.00,,---,0.00,VWS V14.01,2013-01-14 06:36:00,
2013-01-14 00:41:00,15.7,3.2,30.43,NNW,334,0.0,0.0,57,0.00,,---,0.00,VWS V14.01,2013-01-14 06:41:00,
2013-01-14 00:46:00,15.4,2.9,30.44,NNW,334,0.0,0.0,57,0.00,,---,0.00,VWS V14.01,2013-01-14 06:46:00,
2013-01-14 00:51:00,15.2,2.7,30.44,NNW,334,0.0,0.0,57,0.00,,---,0.00,VWS V14.01,2013-01-14 06:51:00,
2013-01-14 00:56:00,15.1,2.6,30.44,NNW,334,0.0,0.0,57,0.00,,---,0.00,VWS V14.01,2013-01-14 06:56:00,
2013-01-14 01:00:00,14.9,2.4,30.45,NNW,334,0.0,0.0,57,0.00,,---,0.00,VWS V14.01,2013-01-14 07:00:00,
2013-01-14 01:01:00,14.9,2.4,30.45,NNW,334,0.0,0.0,57,0.00,,---,0.00,VWS V14.01,2013-01-14 07:01:00,
2013-01-14 01:06:00,14.6,2.2,30.45,NNW,334,0.0,0.0,57,0.00,,---,0.00,VWS V14.01,2013-01-14 07:06:00,
2013-01-14 01:11:00,14.4,2.3,30.45,NNW,334,0.0,0.0,58,0.00,,---,0.00,VWS V14.01,2013-01-14 07:11:00,
2013-01-14 01:16:00,14.4,2.3,30.46,NNW,334,0.0,0.0,58,0.00,,---,0.00,VWS V14.01,2013-01-14 07:16:00,
2013-01-14 01:21:00,14.3,2.2,30.46,NNW,334,0.0,0.0,58,0.00,,---,0.00,VWS V14.01,2013-01-14 07:21:00,
2013-01-14 01:26:00,14.1,2.0,30.46,NNW,334,0.0,0.0,58,0.00,,---,0.00,VWS V14.01,2013-01-14 07:26:00,
2013-01-14 01:30:00,14.0,2.0,30.46,NNW,334,0.0,0.0,58,0.00,,---,0.00,VWS V14.01,2013-01-14 07:30:00,
2013-01-14 01:31:00,14.0,2.0,30.46,NNW,334,0.0,0.0,58,0.00,,---,0.00,VWS V14.01,2013-01-14 07:31:00,
2013-01-14 01:36:00,13.6,1.6,30.46,NNW,334,0.0,0.0,58,0.00,,---,0.00,VWS V14.01,2013-01-14 07:36:00,
2013-01-14 01:41:00,13.3,1.3,30.46,NNW,334,0.0,0.0,58,0.00,,---,0.00,VWS V14.01,2013-01-14 07:41:00,
2013-01-14 01:46:00,12.9,0.9,30.47,NNW,334,0.0,0.0,58,0.00,,---,0.00,VWS V14.01,2013-01-14 07:46:00,
2013-01-14 01:51:00,12.9,0.9,30.47,NNW,334,0.0,0.0,58,0.00,,---,0.00,VWS V14.01,2013-01-14 07:51:00,
2013-01-14 01:56:00,13.3,1.7,30.47,NNW,334,0.0,0.0,59,0.00,,---,0.00,VWS V14.01,2013-01-14 07:56:00,
2013-01-14 02:00:00,13.5,1.9,30.48,NNW,334,0.0,0.0,59,0.00,,---,0.00,VWS V14.01,2013-01-14 08:00:00,
2013-01-14 02:01:00,13.5,1.9,30.48,NNW,334,0.0,0.0,59,0.00,,---,0.00,VWS V14.01,2013-01-14 08:01:00,
2013-01-14 02:06:00,13.5,1.9,30.48,NNW,334,0.0,0.0,59,0.00,,---,0.00,VWS V14.01,2013-01-14 08:06:00,
2013-01-14 02:11:00,13.3,1.7,30.48,NNW,334,0.0,0.0,59,0.00,,---,0.00,VWS V14.01,2013-01-14 08:11:00,
2013-01-14 02:16:00,13.1,1.5,30.49,NNW,334,0.0,0.0,59,0.00,,---,0.00,VWS V14.01,2013-01-14 08:16:00,
2013-01-14 02:21:00,12.9,1.3,30.49,NNW,334,0.0,0.0,59,0.00,,---,0.00,VWS V14.01,2013-01-14 08:21:00,
2013-01-14 02:26:00,12.6,1.0,30.49,NNW,334,0.0,0.0,59,0.00,,---,0.00,VWS V14.01,2013-01-14 08:26:00,
2013-01-14 02:30:00,12.1,0.5,30.49,NNW,334,0.0,0.0,59,0.00,,---,0.00,VWS V14.01,2013-01-14 08:30:00,
2013-01-14 02:31:00,12.3,0.7,30.49,NNW,334,0.0,0.0,59,0.00,,---,0.00,VWS V14.01,2013-01-14 08:31:00,
2013-01-14 02:36:00,11.7,0.2,30.49,NNW,334,0.0,0.0,59,0.00,,---,0.00,VWS V14.01,2013-01-14 08:36:00,
2013-01-14 02:41:00,11.4,-0.1,30.49,NNW,334,0.0,0.0,59,0.00,,---,0.00,VWS V14.01,2013-01-14 08:41:00,
2013-01-14 02:46:00,11.2,-0.3,30.49,NNW,334,0.0,0.0,59,0.00,,---,0.00,VWS V14.01,2013-01-14 08:46:00,
2013-01-14 02:51:00,11.1,-0.4,30.49,NNW,334,0.0,0.0,59,0.00,,---,0.00,VWS V14.01,2013-01-14 08:51:00,
2013-01-14 02:56:00,10.9,-0.6,30.49,NNW,334,0.0,0.0,59,0.00,,---,0.00,VWS V14.01,2013-01-14 08:56:00,
2013-01-14 03:00:00,10.5,-0.6,30.49,NNW,334,0.0,0.0,60,0.00,,---,0.00,VWS V14.01,2013-01-14 09:00:00,
2013-01-14 03:01:00,10.5,-0.6,30.49,NNW,334,0.0,0.0,60,0.00,,---,0.00,VWS V14.01,2013-01-14 09:01:00,
2013-01-14 03:06:00,10.4,-0.7,30.49,NNW,334,0.0,0.0,60,0.00,,---,0.00,VWS V14.01,2013-01-14 09:06:00,
2013-01-14 03:11:00,10.4,-0.7,30.49,NNW,334,0.0,0.0,60,0.00,,---,0.00,VWS V14.01,2013-01-14 09:11:00,
2013-01-14 03:16:00,10.2,-0.9,30.49,NNW,334,0.0,0.0,60,0.00,,---,0.00,VWS V14.01,2013-01-14 09:16:00,
2013-01-14 03:21:00,10.4,-0.7,30.49,NNW,334,0.0,0.0,60,0.00,,---,0.00,VWS V14.01,2013-01-14 09:21:00,
2013-01-14 03:26:00,10.4,-0.7,30.49,NNW,334,0.0,0.0,60,0.00,,---,0.00,VWS V14.01,2013-01-14 09:26:00,
2013-01-14 03:30:00,10.4,-0.4,30.49,NNW,334,0.0,0.0,61,0.00,,---,0.00,VWS V14.01,2013-01-14 09:30:00,
2013-01-14 03:31:00,10.4,-0.4,30.49,NNW,334,0.0,0.0,61,0.00,,---,0.00,VWS V14.01,2013-01-14 09:31:00,
2013-01-14 03:36:00,10.4,-0.4,30.49,NNW,334,0.0,0.0,61,0.00,,---,0.00,VWS V14.01,2013-01-14 09:36:00,
2013-01-14 03:41:00,10.5,-0.3,30.49,NNW,334,0.0,0.0,61,0.00,,---,0.00,VWS V14.01,2013-01-14 09:41:00,
2013-01-14 03:46:00,10.7,-0.1,30.48,NNW,334,0.0,0.0,61,0.00,,---,0.00,VWS V14.01,2013-01-14 09:46:00,
2013-01-14 03:51:00,10.7,-0.1,30.48,NNW,334,0.0,0.0,61,0.00,,---,0.00,VWS V14.01,2013-01-14 09:51:00,
2013-01-14 03:56:00,10.5,-0.3,30.48,NNW,334,0.0,0.0,61,0.00,,---,0.00,VWS V14.01,2013-01-14 09:56:00,
2013-01-14 04:00:00,10.4,-0.4,30.48,NNW,334,0.0,0.0,61,0.00,,---,0.00,VWS V14.01,2013-01-14 10:00:00,
2013-01-14 04:01:00,10.4,-0.4,30.48,NNW,334,0.0,0.0,61,0.00,,---,0.00,VWS V14.01,2013-01-14 10:01:00,
2013-01-14 04:06:00,10.2,-0.6,30.48,NNW,334,0.0,0.0,61,0.00,,---,0.00,VWS V14.01,2013-01-14 10:06:00,
2013-01-14 04:11:00,9.9,-0.5,30.48,NNW,334,0.0,0.0,62,0.00,,---,0.00,VWS V14.01,2013-01-14 10:11:00,
2013-01-14 04:16:00,9.7,-0.7,30.47,NNW,334,0.0,0.0,62,0.00,,---,0.00,VWS V14.01,2013-01-14 10:16:00,
2013-01-14 04:21:00,9.5,-0.9,30.47,NNW,334,0.0,0.0,62,0.00,,---,0.00,VWS V14.01,2013-01-14 10:21:00,
2013-01-14 04:26:00,9.3,-1.1,30.47,NNW,334,0.0,0.0,62,0.00,,---,0.00,VWS V14.01,2013-01-14 10:26:00,
2013-01-14 04:30:00,9.2,-1.2,30.48,NNW,334,0.0,0.0,62,0.00,,---,0.00,VWS V14.01,2013-01-14 10:30:00,
2013-01-14 04:31:00,9.2,-1.2,30.48,NNW,334,0.0,0.0,62,0.00,,---,0.00,VWS V14.01,2013-01-14 10:31:00,
2013-01-14 04:36:00,9.5,-0.5,30.48,NNW,334,0.0,0.0,63,0.00,,---,0.00,VWS V14.01,2013-01-14 10:36:00,
2013-01-14 04:41:00,10.0,-0.1,30.48,NNW,334,0.0,0.0,63,0.00,,---,0.00,VWS V14.01,2013-01-14 10:41:00,
2013-01-14 04:46:00,10.0,-0.1,30.48,NNW,334,0.0,0.0,63,0.00,,---,0.00,VWS V14.01,2013-01-14 10:46:00,
2013-01-14 04:51:00,9.9,-0.2,30.48,NNW,334,0.0,0.0,63,0.00,,---,0.00,VWS V14.01,2013-01-14 10:51:00,
2013-01-14 04:56:00,9.7,-0.3,30.48,NNW,334,0.0,0.0,63,0.00,,---,0.00,VWS V14.01,2013-01-14 10:56:00,
2013-01-14 05:00:00,9.5,-0.5,30.48,NNW,334,0.0,0.0,63,0.00,,---,0.00,VWS V14.01,2013-01-14 11:00:00,
2013-01-14 05:01:00,9.7,-0.3,30.48,NNW,334,0.0,0.0,63,0.00,,---,0.00,VWS V14.01,2013-01-14 11:01:00,
2013-01-14 05:06:00,9.3,-0.7,30.48,NNW,334,0.0,0.0,63,0.00,,---,0.00,VWS V14.01,2013-01-14 11:06:00,
2013-01-14 05:11:00,9.2,-0.8,30.48,NNW,334,0.0,0.0,63,0.00,,---,0.00,VWS V14.01,2013-01-14 11:11:00,
2013-01-14 05:16:00,9.0,-1.0,30.48,NNW,334,0.0,0.0,63,0.00,,---,0.00,VWS V14.01,2013-01-14 11:16:00,
2013-01-14 05:21:00,9.0,-0.7,30.48,NNW,334,0.0,0.0,64,0.00,,---,0.00,VWS V14.01,2013-01-14 11:21:00,
2013-01-14 05:26:00,9.0,-0.7,30.48,NNW,334,0.0,0.0,64,0.00,,---,0.00,VWS V14.01,2013-01-14 11:26:00,
2013-01-14 05:30:00,8.8,-0.9,30.48,NNW,334,0.0,0.0,64,0.00,,---,0.00,VWS V14.01,2013-01-14 11:30:00,
2013-01-14 05:31:00,8.8,-0.9,30.48,NNW,334,0.0,0.0,64,0.00,,---,0.00,VWS V14.01,2013-01-14 11:31:00,
2013-01-14 05:36:00,8.6,-1.1,30.48,NNW,334,0.0,0.0,64,0.00,,---,0.00,VWS V14.01,2013-01-14 11:36:00,
2013-01-14 05:41:00,9.0,-0.4,30.48,NNW,334,0.0,0.0,65,0.00,,---,0.00,VWS V14.01,2013-01-14 11:41:00,
2013-01-14 05:46:00,9.0,-0.7,30.48,NNW,334,0.0,0.0,64,0.00,,---,0.00,VWS V14.01,2013-01-14 11:46:00,
2013-01-14 05:51:00,8.8,-0.9,30.48,NNW,334,0.0,0.0,64,0.00,,---,0.00,VWS V14.01,2013-01-14 11:51:00,
2013-01-14 05:56:00,9.0,-0.7,30.48,NNW,334,0.0,0.0,64,0.00,,---,0.00,VWS V14.01,2013-01-14 11:56:00,
2013-01-14 06:00:00,9.2,-0.5,30.48,NNW,334,0.0,0.0,64,0.00,,---,0.00,VWS V14.01,2013-01-14 12:00:00,
2013-01-14 06:01:00,9.2,-0.5,30.48,NNW,334,0.0,0.0,64,0.00,,---,0.00,VWS V14.01,2013-01-14 12:01:00,
2013-01-14 06:06:00,9.3,-0.1,30.48,NNW,334,0.0,0.0,65,0.00,,---,0.00,VWS V14.01,2013-01-14 12:06:00,
2013-01-14 06:11:00,9.5,0.1,30.48,NNW,334,0.0,0.0,65,0.00,,---,0.00,VWS V14.01,2013-01-14 12:11:00,
2013-01-14 06:16:00,9.7,0.3,30.48,NNW,334,0.0,0.0,65,0.00,,---,0.00,VWS V14.01,2013-01-14 12:16:00,
2013-01-14 06:21:00,9.7,0.3,30.48,NNW,334,0.0,0.0,65,0.00,,---,0.00,VWS V14.01,2013-01-14 12:21:00,
2013-01-14 06:26:00,9.9,0.5,30.48,NNW,334,0.0,0.0,65,0.00,,---,0.00,VWS V14.01,2013-01-14 12:26:00,
2013-01-14 06:30:00,10.4,1.3,30.48,NNW,334,0.0,0.0,66,0.00,,---,0.00,VWS V14.01,2013-01-14 12:30:00,
2013-01-14 06:31:00,10.2,1.1,30.48,NNW,334,0.0,0.0,66,0.00,,---,0.00,VWS V14.01,2013-01-14 12:31:00,
2013-01-14 06:36:00,10.7,1.6,30.48,NNW,334,0.0,0.0,66,0.00,,---,0.00,VWS V14.01,2013-01-14 12:36:00,
2013-01-14 06:41:00,10.9,1.8,30.48,NNW,334,0.0,0.0,66,0.00,,---,0.00,VWS V14.01,2013-01-14 12:41:00,
2013-01-14 06:46:00,11.1,2.0,30.49,NNW,334,0.0,0.0,66,0.00,,---,0.00,VWS V14.01,2013-01-14 12:46:00,
2013-01-14 06:51:00,11.2,2.1,30.49,NNW,334,0.0,0.0,66,0.00,,---,0.00,VWS V14.01,2013-01-14 12:51:00,
2013-01-14 06:56:00,11.2,2.1,30.49,NNW,334,0.0,0.0,66,0.00,,---,0.00,VWS V14.01,2013-01-14 12:56:00,
2013-01-14 07:00:00,11.2,2.1,30.50,NNW,334,0.0,0.0,66,0.00,,---,0.00,VWS V14.01,2013-01-14 13:00:00,
2013-01-14 07:01:00,11.2,2.1,30.50,NNW,334,0.0,0.0,66,0.00,,---,0.00,VWS V14.01,2013-01-14 13:01:00,
2013-01-14 07:06:00,11.2,2.1,30.50,NNW,334,0.0,0.0,66,0.00,,---,0.00,VWS V14.01,2013-01-14 13:06:00,
2013-01-14 07:11:00,11.4,2.3,30.50,NNW,334,0.0,0.0,66,0.00,,---,0.00,VWS V14.01,2013-01-14 13:11:00,
2013-01-14 07:16:00,11.9,3.1,30.51,NNW,334,0.0,0.0,67,0.00,,---,0.00,VWS V14.01,2013-01-14 13:16:00,
2013-01-14 07:21:00,12.4,3.5,30.51,NNW,334,0.0,0.0,67,0.00,,---,0.00,VWS V14.01,2013-01-14 13:21:00,
2013-01-14 07:26:00,12.6,3.7,30.51,NNW,334,0.0,0.0,67,0.00,,---,0.00,VWS V14.01,2013-01-14 13:26:00,
2013-01-14 07:30:00,12.6,3.7,30.51,NNW,334,0.0,0.0,67,0.00,,---,0.00,VWS V14.01,2013-01-14 13:30:00,
2013-01-14 07:31:00,12.6,3.7,30.51,NNW,334,0.0,0.0,67,0.00,,---,0.00,VWS V14.01,2013-01-14 13:31:00,
2013-01-14 07:36:00,12.6,3.7,30.51,NNW,334,0.0,0.0,67,0.00,,---,0.00,VWS V14.01,2013-01-14 13:36:00,
2013-01-14 07:41:00,12.6,3.7,30.51,NNW,334,0.0,0.0,67,0.00,,---,0.00,VWS V14.01,2013-01-14 13:41:00,
2013-01-14 07:46:00,12.4,3.5,30.52,NNW,334,0.0,0.0,67,0.00,,---,0.00,VWS V14.01,2013-01-14 13:46:00,
2013-01-14 07:51:00,12.4,3.5,30.52,NNW,334,0.0,0.0,67,0.00,,---,0.00,VWS V14.01,2013-01-14 13:51:00,
2013-01-14 07:56:00,12.3,3.5,30.52,NNW,334,0.0,0.0,67,0.00,,---,0.00,VWS V14.01,2013-01-14 13:56:00,
2013-01-14 08:00:00,12.3,3.5,30.53,NNW,334,0.0,0.0,67,0.00,,---,0.00,VWS V14.01,2013-01-14 14:00:00,
2013-01-14 08:01:00,12.3,3.5,30.53,NNW,334,0.0,0.0,67,0.00,,---,0.00,VWS V14.01,2013-01-14 14:01:00,
2013-01-14 08:06:00,12.3,3.5,30.53,NNW,334,0.0,0.0,67,0.00,,---,0.00,VWS V14.01,2013-01-14 14:06:00,
2013-01-14 08:11:00,12.4,3.5,30.53,NNW,334,0.0,0.0,67,0.00,,---,0.00,VWS V14.01,2013-01-14 14:11:00,
2013-01-14 08:16:00,12.6,3.7,30.53,NNW,334,0.0,0.0,67,0.00,,---,0.00,VWS V14.01,2013-01-14 14:16:00,
2013-01-14 08:21:00,12.9,4.0,30.53,NNW,333,0.0,1.0,67,0.00,,---,0.00,VWS V14.01,2013-01-14 14:21:00,
2013-01-14 08:26:00,13.3,4.4,30.53,NNW,330,1.0,2.0,67,0.00,,---,0.00,VWS V14.01,2013-01-14 14:26:00,
2013-01-14 08:30:00,13.6,5.0,30.53,NNW,330,0.0,2.0,68,0.00,,---,0.00,VWS V14.01,2013-01-14 14:30:00,
2013-01-14 08:31:00,13.6,4.7,30.53,NNW,330,0.0,2.0,67,0.00,,---,0.00,VWS V14.01,2013-01-14 14:31:00,
2013-01-14 08:36:00,13.8,5.2,30.53,NNW,330,0.0,0.0,68,0.00,,---,0.00,VWS V14.01,2013-01-14 14:36:00,
2013-01-14 08:41:00,14.0,5.4,30.53,NNW,330,0.0,0.0,68,0.00,,---,0.00,VWS V14.01,2013-01-14 14:41:00,
2013-01-14 08:46:00,14.1,5.5,30.55,NNW,330,0.0,1.0,68,0.00,,---,0.00,VWS V14.01,2013-01-14 14:46:00,
2013-01-14 08:51:00,14.3,5.7,30.55,NNW,330,1.0,2.0,68,0.00,,---,0.00,VWS V14.01,2013-01-14 14:51:00,
2013-01-14 08:56:00,14.4,5.8,30.55,NNW,330,0.0,2.0,68,0.00,,---,0.00,VWS V14.01,2013-01-14 14:56:00,
2013-01-14 09:00:00,14.9,6.3,30.55,NNW,331,2.0,4.0,68,0.00,,---,0.00,VWS V14.01,2013-01-14 15:00:00,
2013-01-14 09:01:00,14.9,6.3,30.55,NNW,331,0.0,4.0,68,0.00,,---,0.00,VWS V14.01,2013-01-14 15:01:00,
2013-01-14 09:06:00,15.4,6.7,30.55,NNW,336,2.0,3.0,68,0.00,,---,0.00,VWS V14.01,2013-01-14 15:06:00,
2013-01-14 09:11:00,15.9,7.2,30.55,NNW,339,0.0,4.0,68,0.00,,---,0.00,VWS V14.01,2013-01-14 15:11:00,
2013-01-14 09:16:00,16.4,7.7,30.56,NNW,339,0.0,4.0,68,0.00,,---,0.00,VWS V14.01,2013-01-14 15:16:00,
2013-01-14 09:21:00,17.0,8.3,30.56,NNW,339,3.0,4.0,68,0.00,,---,0.00,VWS V14.01,2013-01-14 15:21:00,
2013-01-14 09:26:00,17.8,9.0,30.56,NNW,333,1.0,4.0,68,0.00,,---,0.00,VWS V14.01,2013-01-14 15:26:00,
2013-01-14 09:30:00,18.8,10.0,30.56,NNW,332,0.0,4.0,68,0.00,,---,0.00,VWS V14.01,2013-01-14 15:30:00,
2013-01-14 09:31:00,18.8,10.0,30.56,NNW,332,0.0,4.0,68,0.00,,---,0.00,VWS V14.01,2013-01-14 15:31:00,
2013-01-14 09:36:00,19.4,10.6,30.56,NNW,340,3.0,5.0,68,0.00,,---,0.00,VWS V14.01,2013-01-14 15:36:00,
2013-01-14 09:41:00,19.9,11.1,30.56,North,355,3.0,6.0,68,0.00,,---,0.00,VWS V14.01,2013-01-14 15:41:00,
2013-01-14 09:46:00,20.5,11.6,30.56,NNW,331,1.0,6.0,68,0.00,,---,0.00,VWS V14.01,2013-01-14 15:46:00,
2013-01-14 09:51:00,20.8,11.6,30.56,NNW,329,0.0,6.0,67,0.00,,---,0.00,VWS V14.01,2013-01-14 15:51:00,
2013-01-14 09:56:00,21.0,11.8,30.56,NW,318,0.0,6.0,67,0.00,,---,0.00,VWS V14.01,2013-01-14 15:56:00,
2013-01-14 10:00:00,21.0,11.4,30.56,NNW,328,1.0,6.0,66,0.00,,---,0.00,VWS V14.01,2013-01-14 16:00:00,
2013-01-14 10:01:00,21.0,11.8,30.56,NNW,329,2.0,6.0,67,0.00,,---,0.00,VWS V14.01,2013-01-14 16:01:00,
2013-01-14 10:06:00,21.0,11.4,30.56,NNW,331,0.0,3.0,66,0.00,,---,0.00,VWS V14.01,2013-01-14 16:06:00,
2013-01-14 10:11:00,21.3,11.7,30.56,NW,322,0.0,3.0,66,0.00,,---,0.00,VWS V14.01,2013-01-14 16:11:00,
2013-01-14 10:16:00,21.4,11.8,30.55,NNW,337,3.0,5.0,66,0.00,,---,0.00,VWS V14.01,2013-01-14 16:16:00,
2013-01-14 10:21:00,21.6,11.7,30.55,North,360,3.0,7.0,65,0.00,,---,0.00,VWS V14.01,2013-01-14 16:21:00,
2013-01-14 10:26:00,21.8,11.9,30.55,NNW,340,0.0,8.0,65,0.00,,---,0.00,VWS V14.01,2013-01-14 16:26:00,
2013-01-14 10:30:00,21.9,11.9,30.54,NNE,19,5.0,9.0,65,0.00,,---,0.00,VWS V14.01,2013-01-14 16:30:00,
2013-01-14 10:31:00,21.9,12.0,30.54,North,360,6.0,9.0,65,0.00,,---,0.00,VWS V14.01,2013-01-14 16:31:00,
2013-01-14 10:36:00,22.2,11.9,30.54,North,351,2.0,6.0,64,0.00,,---,0.00,VWS V14.01,2013-01-14 16:36:00,
2013-01-14 10:41:00,22.7,12.4,30.54,North,360,1.0,6.0,64,0.00,,---,0.00,VWS V14.01,2013-01-14 16:41:00,
2013-01-14 10:46:00,22.7,12.4,30.54,NNW,346,5.0,9.0,64,0.00,,---,0.00,VWS V14.01,2013-01-14 16:46:00,
2013-01-14 10:51:00,22.5,11.8,30.54,NNW,333,1.0,9.0,63,0.00,,---,0.00,VWS V14.01,2013-01-14 16:51:00,
2013-01-14 10:56:00,22.2,11.5,30.54,NW,318,3.0,9.0,63,0.00,,---,0.00,VWS V14.01,2013-01-14 16:56:00,
2013-01-14 11:00:00,22.4,11.7,30.53,NNW,330,4.0,9.0,63,0.00,,---,0.00,VWS V14.01,2013-01-14 17:00:00,
2013-01-14 11:01:00,22.2,11.5,30.53,North,5,5.0,9.0,63,0.00,,---,0.00,VWS V14.01,2013-01-14 17:01:00,
2013-01-14 11:06:00,22.7,12.0,30.53,NNE,15,5.0,8.0,63,0.00,,---,0.00,VWS V14.01,2013-01-14 17:06:00,
2013-01-14 11:11:00,22.9,11.8,30.53,NNW,340,7.0,10.0,62,0.00,,---,0.00,VWS V14.01,2013-01-14 17:11:00,
2013-01-14 11:16:00,23.3,12.2,30.52,North,350,6.0,10.0,62,0.00,,---,0.00,VWS V14.01,2013-01-14 17:16:00,
2013-01-14 11:21:00,23.5,12.0,30.52,NNW,336,2.0,10.0,61,0.00,,---,0.00,VWS V14.01,2013-01-14 17:21:00,
2013-01-14 11:26:00,23.9,12.4,30.52,NNW,333,5.0,10.0,61,0.00,,---,0.00,VWS V14.01,2013-01-14 17:26:00,
2013-01-14 11:30:00,24.4,12.9,30.51,North,5,4.0,10.0,61,0.00,,---,0.00,VWS V14.01,2013-01-14 17:30:00,
2013-01-14 11:31:00,24.4,12.9,30.51,NNE,19,6.0,10.0,61,0.00,,---,0.00,VWS V14.01,2013-01-14 17:31:00,
2013-01-14 11:36:00,24.5,12.6,30.51,NNW,346,3.0,7.0,60,0.00,,---,0.00,VWS V14.01,2013-01-14 17:36:00,
2013-01-14 11:41:00,24.7,12.8,30.51,NNE,15,2.0,8.0,60,0.00,,---,0.00,VWS V14.01,2013-01-14 17:41:00,
2013-01-14 11:46:00,25.0,13.1,30.50,North,5,4.0,8.0,60,0.00,,---,0.00,VWS V14.01,2013-01-14 17:46:00,
2013-01-14 11:51:00,25.3,13.0,30.50,NNW,336,9.0,9.0,59,0.00,,---,0.00,VWS V14.01,2013-01-14 17:51:00,
2013-01-14 11:56:00,25.6,13.3,30.50,WNW,303,5.0,9.0,59,0.00,,---,0.00,VWS V14.01,2013-01-14 17:56:00,
2013-01-14 12:00:00,26.0,13.6,30.48,NNE,33,10.0,10.0,59,0.00,,---,0.00,VWS V14.01,2013-01-14 18:00:00,
2013-01-14 12:01:00,25.8,13.5,30.48,North,5,5.0,10.0,59,0.00,,---,0.00,VWS V14.01,2013-01-14 18:01:00,
2013-01-14 12:06:00,26.1,13.4,30.48,NNW,345,4.0,10.0,58,0.00,,---,0.00,VWS V14.01,2013-01-14 18:06:00,
2013-01-14 12:11:00,25.8,13.1,30.48,North,5,7.0,10.0,58,0.00,,---,0.00,VWS V14.01,2013-01-14 18:11:00,
2013-01-14 12:16:00,26.1,13.4,30.48,NNE,19,9.0,10.0,58,0.00,,---,0.00,VWS V14.01,2013-01-14 18:16:00,
2013-01-14 12:21:00,26.4,13.2,30.48,NNE,18,7.0,10.0,57,0.00,,---,0.00,VWS V14.01,2013-01-14 18:21:00,
2013-01-14 12:26:00,26.7,13.5,30.48,NNW,347,4.0,10.0,57,0.00,,---,0.00,VWS V14.01,2013-01-14 18:26:00,
2013-01-14 12:30:00,26.9,13.3,30.47,NNE,22,5.0,10.0,56,0.00,,---,0.00,VWS V14.01,2013-01-14 18:30:00,
2013-01-14 12:31:00,26.9,13.3,30.47,NNE,29,2.0,10.0,56,0.00,,---,0.00,VWS V14.01,2013-01-14 18:31:00,
2013-01-14 12:36:00,26.9,13.3,30.47,North,355,7.0,9.0,56,0.00,,---,0.00,VWS V14.01,2013-01-14 18:36:00,
2013-01-14 12:41:00,27.0,13.4,30.47,North,5,4.0,9.0,56,0.00,,---,0.00,VWS V14.01,2013-01-14 18:41:00,
2013-01-14 12:46:00,26.9,12.9,30.47,NNW,340,10.0,10.0,55,0.00,,---,0.00,VWS V14.01,2013-01-14 18:46:00,
2013-01-14 12:51:00,27.0,13.0,30.48,NNW,344,7.0,10.0,55,0.00,,---,0.00,VWS V14.01,2013-01-14 18:51:00,
2013-01-14 12:56:00,26.9,12.5,30.48,NW,325,2.0,10.0,54,0.00,,---,0.00,VWS V14.01,2013-01-14 18:56:00,
2013-01-14 13:00:00,27.2,12.8,30.47,North,5,3.0,10.0,54,0.00,,---,0.00,VWS V14.01,2013-01-14 19:00:00,
2013-01-14 13:01:00,27.0,12.6,30.48,NNE,21,6.0,10.0,54,0.00,,---,0.00,VWS V14.01,2013-01-14 19:01:00,
2013-01-14 13:06:00,27.3,12.9,30.47,NNE,32,1.0,5.0,54,0.00,,---,0.00,VWS V14.01,2013-01-14 19:06:00,
2013-01-14 13:11:00,27.3,12.4,30.47,NW,319,1.0,8.0,53,0.00,,---,0.00,VWS V14.01,2013-01-14 19:11:00,
2013-01-14 13:16:00,27.5,12.6,30.47,NE,49,0.0,8.0,53,0.00,,---,0.00,VWS V14.01,2013-01-14 19:16:00,
2013-01-14 13:21:00,27.6,12.7,30.46,NNE,19,3.0,8.0,53,0.00,,---,0.00,VWS V14.01,2013-01-14 19:21:00,
2013-01-14 13:26:00,27.8,12.5,30.46,NNW,338,4.0,8.0,52,0.00,,---,0.00,VWS V14.01,2013-01-14 19:26:00,
2013-01-14 13:30:00,28.1,12.8,30.46,North,360,4.0,8.0,52,0.00,,---,0.00,VWS V14.01,2013-01-14 19:30:00,
2013-01-14 13:31:00,28.1,12.8,30.46,NNW,344,0.0,8.0,52,0.00,,---,0.00,VWS V14.01,2013-01-14 19:31:00,
2013-01-14 13:36:00,28.2,12.9,30.46,North,355,0.0,5.0,52,0.00,,---,0.00,VWS V14.01,2013-01-14 19:36:00,
2013-01-14 13:41:00,28.5,12.7,30.46,NNE,27,3.0,5.0,51,0.00,,---,0.00,VWS V14.01,2013-01-14 19:41:00,
2013-01-14 13:46:00,28.7,12.9,30.46,NNE,22,2.0,8.0,51,0.00,,---,0.00,VWS V14.01,2013-01-14 19:46:00,
2013-01-14 13:51:00,28.5,12.7,30.46,North,5,0.0,8.0,51,0.00,,---,0.00,VWS V14.01,2013-01-14 19:51:00,
2013-01-14 13:56:00,28.5,12.2,30.46,NNW,336,3.0,8.0,50,0.00,,---,0.00,VWS V14.01,2013-01-14 19:56:00,
2013-01-14 14:00:00,28.4,12.1,30.45,NW,322,2.0,8.0,50,0.00,,---,0.00,VWS V14.01,2013-01-14 20:00:00,
2013-01-14 14:01:00,28.4,12.1,30.46,NNE,24,1.0,8.0,50,0.00,,---,0.00,VWS V14.01,2013-01-14 20:01:00,
2013-01-14 14:06:00,28.5,12.2,30.45,NNE,18,2.0,4.0,50,0.00,,---,0.00,VWS V14.01,2013-01-14 20:06:00,
2013-01-14 14:11:00,28.7,12.0,30.45,NE,52,2.0,4.0,49,0.00,,---,0.00,VWS V14.01,2013-01-14 20:11:00,
2013-01-14 14:16:00,28.7,12.0,30.45,ENE,74,1.0,5.0,49,0.00,,---,0.00,VWS V14.01,2013-01-14 20:16:00,
2013-01-14 14:21:00,28.8,12.1,30.45,NE,38,2.0,5.0,49,0.00,,---,0.00,VWS V14.01,2013-01-14 20:21:00,
2013-01-14 14:26:00,29.0,12.2,30.45,North,349,2.0,5.0,49,0.00,,---,0.00,VWS V14.01,2013-01-14 20:26:00,
2013-01-14 14:30:00,29.1,12.3,30.45,NE,35,2.0,6.0,49,0.00,,---,0.00,VWS V14.01,2013-01-14 20:30:00,
2013-01-14 14:31:00,29.1,12.3,30.45,NE,44,2.0,6.0,49,0.00,,---,0.00,VWS V14.01,2013-01-14 20:31:00,
2013-01-14 14:36:00,29.3,12.1,30.45,NE,36,1.0,5.0,48,0.00,,---,0.00,VWS V14.01,2013-01-14 20:36:00,
2013-01-14 14:41:00,29.3,12.1,30.45,NNE,30,2.0,5.0,48,0.00,,---,0.00,VWS V14.01,2013-01-14 20:41:00,
2013-01-14 14:46:00,29.4,12.1,30.45,NE,55,1.0,5.0,48,0.00,,---,0.00,VWS V14.01,2013-01-14 20:46:00,
2013-01-14 14:51:00,29.4,12.1,30.44,NE,55,0.0,5.0,48,0.00,,---,0.00,VWS V14.01,2013-01-14 20:51:00,
2013-01-14 14:56:00,29.4,11.7,30.44,ENE,77,0.0,8.0,47,0.00,,---,0.00,VWS V14.01,2013-01-14 20:56:00,
2013-01-14 15:00:00,29.3,11.6,30.45,NE,42,2.0,8.0,47,0.00,,---,0.00,VWS V14.01,2013-01-14 21:00:00,
2013-01-14 15:01:00,29.3,11.6,30.44,NE,46,0.0,8.0,47,0.00,,---,0.00,VWS V14.01,2013-01-14 21:01:00,
2013-01-14 15:06:00,29.4,11.7,30.45,NNE,22,4.0,6.0,47,0.00,,---,0.00,VWS V14.01,2013-01-14 21:06:00,
2013-01-14 15:11:00,29.4,11.2,30.45,North,355,3.0,6.0,46,0.00,,---,0.00,VWS V14.01,2013-01-14 21:11:00,
2013-01-14 15:16:00,29.3,11.1,30.45,NE,49,3.0,6.0,46,0.00,,---,0.00,VWS V14.01,2013-01-14 21:16:00,
2013-01-14 15:21:00,29.4,11.2,30.45,ENE,67,0.0,8.0,46,0.00,,---,0.00,VWS V14.01,2013-01-14 21:21:00,
2013-01-14 15:26:00,29.4,11.2,30.45,NE,55,3.0,8.0,46,0.00,,---,0.00,VWS V14.01,2013-01-14 21:26:00,
2013-01-14 15:30:00,29.4,10.7,30.45,East,84,3.0,8.0,45,0.00,,---,0.00,VWS V14.01,2013-01-14 21:30:00,
2013-01-14 15:31:00,29.4,10.7,30.45,East,85,1.0,8.0,45,0.00,,---,0.00,VWS V14.01,2013-01-14 21:31:00,
2013-01-14 15:36:00,29.3,10.6,30.45,East,84,0.0,3.0,45,0.00,,---,0.00,VWS V14.01,2013-01-14 21:36:00,
2013-01-14 15:41:00,29.3,10.6,30.45,East,84,0.0,3.0,45,0.00,,---,0.00,VWS V14.01,2013-01-14 21:41:00,
2013-01-14 15:46:00,29.1,10.4,30.45,East,81,0.0,3.0,45,0.00,,---,0.00,VWS V14.01,2013-01-14 21:46:00,
2013-01-14 15:51:00,29.1,10.4,30.45,ENE,78,1.0,3.0,45,0.00,,---,0.00,VWS V14.01,2013-01-14 21:51:00,
2013-01-14 15:55:00,29.3,10.6,30.45,NE,54,1.0,5.0,45,0.00,,---,0.00,VWS V14.01,2013-01-14 21:55:00,
2013-01-14 16:00:00,29.3,10.1,30.45,NNE,28,2.0,6.0,44,0.00,,---,0.00,VWS V14.01,2013-01-14 22:00:00,
2013-01-14 16:01:00,29.3,10.1,30.45,NNE,28,2.0,6.0,44,0.00,,---,0.00,VWS V14.01,2013-01-14 22:01:00,
2013-01-14 16:05:00,29.3,10.6,30.45,East,79,3.0,5.0,45,0.00,,---,0.00,VWS V14.01,2013-01-14 22:05:00,
2013-01-14 16:10:00,29.4,10.7,30.45,South,169,0.0,5.0,45,0.00,,---,0.00,VWS V14.01,2013-01-14 22:10:00,
2013-01-14 16:15:00,29.3,10.6,30.45,SE,136,0.0,5.0,45,0.00,,---,0.00,VWS V14.01,2013-01-14 22:15:00,
2013-01-14 16:20:00,29.0,10.8,30.45,SE,134,1.0,5.0,46,0.00,,---,0.00,VWS V14.01,2013-01-14 22:20:00,
2013-01-14 16:25:00,28.7,10.6,30.45,SSE,159,2.0,5.0,46,0.00,,---,0.00,VWS V14.01,2013-01-14 22:25:00,
2013-01-14 16:30:00,28.4,10.3,30.45,SSE,154,0.0,5.0,46,0.00,,---,0.00,VWS V14.01,2013-01-14 22:30:00,
2013-01-14 16:35:00,28.2,10.6,30.44,SSE,155,1.0,4.0,47,0.00,,---,0.00,VWS V14.01,2013-01-14 22:35:00,
2013-01-14 16:40:00,27.9,10.3,30.44,SSE,165,0.0,4.0,47,0.00,,---,0.00,VWS V14.01,2013-01-14 22:40:00,
2013-01-14 16:45:00,27.6,10.0,30.44,ESE,108,1.0,5.0,47,0.00,,---,0.00,VWS V14.01,2013-01-14 22:45:00,
2013-01-14 16:50:00,27.3,10.2,30.45,ESE,122,1.0,5.0,48,0.00,,---,0.00,VWS V14.01,2013-01-14 22:50:00,
2013-01-14 16:55:00,26.9,9.9,30.45,SE,146,0.0,5.0,48,0.00,,---,0.00,VWS V14.01,2013-01-14 22:55:00,
2013-01-14 17:00:00,26.6,9.6,30.45,South,178,1.0,5.0,48,0.00,,---,0.00,VWS V14.01,2013-01-14 23:00:00,
2013-01-14 17:05:00,26.3,9.8,30.44,SE,134,0.0,4.0,49,0.00,,---,0.00,VWS V14.01,2013-01-14 23:05:00,
2013-01-14 17:10:00,26.0,9.5,30.44,SE,128,0.0,5.0,49,0.00,,---,0.00,VWS V14.01,2013-01-14 23:10:00,
2013-01-14 17:15:00,25.7,9.2,30.44,SSE,157,1.0,5.0,49,0.00,,---,0.00,VWS V14.01,2013-01-14 23:15:00,
2013-01-14 17:20:00,25.4,8.9,30.44,SSE,163,0.0,5.0,49,0.00,,---,0.00,VWS V14.01,2013-01-14 23:20:00,
2013-01-14 17:25:00,25.1,8.6,30.44,SSE,157,1.0,5.0,49,0.00,,---,0.00,VWS V14.01,2013-01-14 23:25:00,
2013-01-14 17:30:00,24.8,8.8,30.44,SSE,153,2.0,5.0,50,0.00,,---,0.00,VWS V14.01,2013-01-14 23:30:00,
2013-01-14 17:35:00,24.7,8.7,30.44,SSE,155,0.0,2.0,50,0.00,,---,0.00,VWS V14.01,2013-01-14 23:35:00,
2013-01-14 17:40:00,24.4,8.4,30.44,SSE,161,0.0,2.0,50,0.00,,---,0.00,VWS V14.01,2013-01-14 23:40:00,
2013-01-14 17:45:00,24.1,8.2,30.44,SSE,156,0.0,2.0,50,0.00,,---,0.00,VWS V14.01,2013-01-14 23:45:00,
2013-01-14 17:50:00,23.9,8.4,30.44,SSE,155,0.0,2.0,51,0.00,,---,0.00,VWS V14.01,2013-01-14 23:50:00,
2013-01-14 17:56:00,23.6,8.1,30.44,SSE,154,0.0,2.0,51,0.00,,---,0.00,VWS V14.01,2013-01-14 23:56:00,
2013-01-14 18:00:00,23.5,8.1,30.44,SSE,153,0.0,2.0,51,0.00,,---,0.00,VWS V14.01,2013-01-15 00:00:00,
2013-01-14 18:01:00,23.5,8.1,30.44,SSE,153,0.0,2.0,51,0.00,,---,0.00,VWS V14.01,2013-01-15 00:01:00,
2013-01-14 18:06:00,23.2,7.8,30.44,SSE,153,0.0,0.0,51,0.00,,---,0.00,VWS V14.01,2013-01-15 00:06:00,
2013-01-14 18:11:00,23.0,7.6,30.44,SSE,153,0.0,0.0,51,0.00,,---,0.00,VWS V14.01,2013-01-15 00:11:00,
2013-01-14 18:15:00,22.9,7.9,30.44,SSE,153,0.0,0.0,52,0.00,,---,0.00,VWS V14.01,2013-01-15 00:15:00,
2013-01-14 18:20:00,22.7,7.7,30.46,SSE,153,0.0,0.0,52,0.00,,---,0.00,VWS V14.01,2013-01-15 00:20:00,
2013-01-14 18:25:00,22.4,7.4,30.46,SSE,153,0.0,0.0,52,0.00,,---,0.00,VWS V14.01,2013-01-15 00:25:00,
2013-01-14 18:30:00,22.2,7.3,30.46,SSE,153,0.0,0.0,52,0.00,,---,0.00,VWS V14.01,2013-01-15 00:30:00,
2013-01-14 18:35:00,21.9,7.0,30.46,SSE,153,0.0,0.0,52,0.00,,---,0.00,VWS V14.01,2013-01-15 00:35:00,
2013-01-14 18:40:00,21.6,7.1,30.46,SSE,153,0.0,0.0,53,0.00,,---,0.00,VWS V14.01,2013-01-15 00:40:00,
2013-01-14 18:45:00,21.3,6.8,30.46,SSE,153,0.0,0.0,53,0.00,,---,0.00,VWS V14.01,2013-01-15 00:45:00,
2013-01-14 18:50:00,21.1,6.7,30.46,SSE,153,0.0,0.0,53,0.00,,---,0.00,VWS V14.01,2013-01-15 00:50:00,
2013-01-14 18:55:00,21.0,6.6,30.46,SSE,153,0.0,0.0,53,0.00,,---,0.00,VWS V14.01,2013-01-15 00:55:00,
2013-01-14 19:00:00,21.1,6.7,30.46,SSE,153,0.0,0.0,53,0.00,,---,0.00,VWS V14.01,2013-01-15 01:00:00,
2013-01-14 19:05:00,21.1,7.1,30.46,SSE,153,0.0,0.0,54,0.00,,---,0.00,VWS V14.01,2013-01-15 01:05:00,
2013-01-14 19:10:00,21.1,7.1,30.46,SSE,153,0.0,0.0,54,0.00,,---,0.00,VWS V14.01,2013-01-15 01:10:00,
2013-01-14 19:15:00,21.1,7.1,30.46,SSE,153,0.0,0.0,54,0.00,,---,0.00,VWS V14.01,2013-01-15 01:15:00,
2013-01-14 19:20:00,20.8,6.8,30.46,SSE,153,0.0,0.0,54,0.00,,---,0.00,VWS V14.01,2013-01-15 01:20:00,
2013-01-14 19:25:00,20.5,6.5,30.46,SSE,153,0.0,0.0,54,0.00,,---,0.00,VWS V14.01,2013-01-15 01:25:00,
2013-01-14 19:30:00,19.9,5.9,30.46,SSE,153,0.0,0.0,54,0.00,,---,0.00,VWS V14.01,2013-01-15 01:30:00,
2013-01-14 19:35:00,19.4,5.5,30.46,SSE,153,0.0,0.0,54,0.00,,---,0.00,VWS V14.01,2013-01-15 01:35:00,
2013-01-14 19:40:00,18.8,4.9,30.46,SSE,153,0.0,0.0,54,0.00,,---,0.00,VWS V14.01,2013-01-15 01:40:00,
2013-01-14 19:45:00,18.3,4.4,30.46,SSE,153,0.0,0.0,54,0.00,,---,0.00,VWS V14.01,2013-01-15 01:45:00,
2013-01-14 19:50:00,17.8,4.0,30.47,SSE,153,0.0,0.0,54,0.00,,---,0.00,VWS V14.01,2013-01-15 01:50:00,
2013-01-14 19:55:00,17.5,3.7,30.47,SSE,153,0.0,0.0,54,0.00,,---,0.00,VWS V14.01,2013-01-15 01:55:00,
2013-01-14 20:00:00,17.2,3.8,30.47,SSE,153,0.0,0.0,55,0.00,,---,0.00,VWS V14.01,2013-01-15 02:00:00,
2013-01-14 20:05:00,17.0,3.6,30.47,SSE,153,0.0,0.0,55,0.00,,---,0.00,VWS V14.01,2013-01-15 02:05:00,
2013-01-14 20:10:00,17.0,3.6,30.47,SSE,153,0.0,0.0,55,0.00,,---,0.00,VWS V14.01,2013-01-15 02:10:00,
2013-01-14 20:15:00,17.0,3.6,30.47,SSE,153,0.0,0.0,55,0.00,,---,0.00,VWS V14.01,2013-01-15 02:15:00,
2013-01-14 20:20:00,17.0,3.6,30.47,SSE,153,0.0,0.0,55,0.00,,---,0.00,VWS V14.01,2013-01-15 02:20:00,
2013-01-14 20:25:00,16.9,3.9,30.47,SSE,153,0.0,0.0,56,0.00,,---,0.00,VWS V14.01,2013-01-15 02:25:00,
2013-01-14 20:30:00,16.9,3.9,30.47,SSE,153,0.0,0.0,56,0.00,,---,0.00,VWS V14.01,2013-01-15 02:30:00,
2013-01-14 20:35:00,16.7,3.7,30.47,SSE,153,0.0,0.0,56,0.00,,---,0.00,VWS V14.01,2013-01-15 02:35:00,
2013-01-14 20:40:00,16.7,3.7,30.47,SSE,153,0.0,0.0,56,0.00,,---,0.00,VWS V14.01,2013-01-15 02:40:00,
2013-01-14 20:45:00,16.5,3.9,30.47,SSE,153,0.0,0.0,57,0.00,,---,0.00,VWS V14.01,2013-01-15 02:45:00,
2013-01-14 20:50:00,16.4,3.8,30.46,SSE,153,0.0,0.0,57,0.00,,---,0.00,VWS V14.01,2013-01-15 02:50:00,
2013-01-14 20:55:00,16.2,3.7,30.46,SSE,153,0.0,0.0,57,0.00,,---,0.00,VWS V14.01,2013-01-15 02:55:00,
2013-01-14 21:00:00,16.1,3.6,30.46,SSE,153,0.0,0.0,57,0.00,,---,0.00,VWS V14.01,2013-01-15 03:00:00,
2013-01-14 21:05:00,15.9,3.4,30.46,SSE,153,0.0,0.0,57,0.00,,---,0.00,VWS V14.01,2013-01-15 03:05:00,
2013-01-14 21:10:00,15.7,3.2,30.46,SSE,153,0.0,0.0,57,0.00,,---,0.00,VWS V14.01,2013-01-15 03:10:00,
2013-01-14 21:15:00,15.4,3.3,30.46,SSE,153,0.0,0.0,58,0.00,,---,0.00,VWS V14.01,2013-01-15 03:15:00,
2013-01-14 21:20:00,15.4,3.3,30.45,SSE,153,0.0,0.0,58,0.00,,---,0.00,VWS V14.01,2013-01-15 03:20:00,
2013-01-14 21:25:00,15.2,3.1,30.45,SSE,153,0.0,0.0,58,0.00,,---,0.00,VWS V14.01,2013-01-15 03:25:00,
2013-01-14 21:30:00,15.1,3.0,30.45,SSE,153,0.0,0.0,58,0.00,,---,0.00,VWS V14.01,2013-01-15 03:30:00,
2013-01-14 21:35:00,14.9,2.8,30.46,SSE,153,0.0,0.0,58,0.00,,---,0.00,VWS V14.01,2013-01-15 03:35:00,
2013-01-14 21:40:00,14.9,2.8,30.46,SSE,153,0.0,0.0,58,0.00,,---,0.00,VWS V14.01,2013-01-15 03:40:00,
2013-01-14 21:45:00,14.8,2.7,30.46,SSE,153,0.0,0.0,58,0.00,,---,0.00,VWS V14.01,2013-01-15 03:45:00,
2013-01-14 21:50:00,14.8,3.1,30.46,SSE,153,0.0,0.0,59,0.00,,---,0.00,VWS V14.01,2013-01-15 03:50:00,
2013-01-14 21:55:00,14.6,2.9,30.46,SSE,153,0.0,0.0,59,0.00,,---,0.00,VWS V14.01,2013-01-15 03:55:00,
2013-01-14 22:00:00,14.4,2.7,30.46,SSE,153,0.0,0.0,59,0.00,,---,0.00,VWS V14.01,2013-01-15 04:00:00,
2013-01-14 22:05:00,14.4,2.7,30.46,SSE,153,0.0,0.0,59,0.00,,---,0.00,VWS V14.01,2013-01-15 04:05:00,
2013-01-14 22:10:00,14.3,2.6,30.46,SSE,153,0.0,0.0,59,0.00,,---,0.00,VWS V14.01,2013-01-15 04:10:00,
2013-01-14 22:15:00,14.0,2.3,30.46,SSE,153,0.0,0.0,59,0.00,,---,0.00,VWS V14.01,2013-01-15 04:15:00,
2013-01-14 22:20:00,13.8,2.1,30.46,SSE,153,0.0,0.0,59,0.00,,---,0.00,VWS V14.01,2013-01-15 04:20:00,
2013-01-14 22:25:00,13.5,1.9,30.46,SSE,153,0.0,0.0,59,0.00,,---,0.00,VWS V14.01,2013-01-15 04:25:00,
2013-01-14 22:30:00,13.3,1.7,30.46,SSE,153,0.0,0.0,59,0.00,,---,0.00,VWS V14.01,2013-01-15 04:30:00,
2013-01-14 22:35:00,12.9,1.3,30.46,SSE,153,0.0,0.0,59,0.00,,---,0.00,VWS V14.01,2013-01-15 04:35:00,
2013-01-14 22:40:00,12.8,1.2,30.46,SSE,153,0.0,0.0,59,0.00,,---,0.00,VWS V14.01,2013-01-15 04:40:00,
2013-01-14 22:45:00,12.6,1.0,30.46,SSE,153,0.0,0.0,59,0.00,,---,0.00,VWS V14.01,2013-01-15 04:45:00,
2013-01-14 22:50:00,12.4,1.2,30.45,SSE,153,0.0,0.0,60,0.00,,---,0.00,VWS V14.01,2013-01-15 04:50:00,
2013-01-14 22:55:00,12.1,0.9,30.45,SSE,153,0.0,0.0,60,0.00,,---,0.00,VWS V14.01,2013-01-15 04:55:00,
2013-01-14 23:00:00,11.9,0.7,30.45,SSE,153,0.0,0.0,60,0.00,,---,0.00,VWS V14.01,2013-01-15 05:00:00,
2013-01-14 23:01:00,11.9,0.7,30.45,SSE,153,0.0,0.0,60,0.00,,---,0.00,VWS V14.01,2013-01-15 05:01:00,
2013-01-14 23:06:00,11.9,0.7,30.45,SSE,153,0.0,0.0,60,0.00,,---,0.00,VWS V14.01,2013-01-15 05:06:00,
2013-01-14 23:11:00,11.7,0.5,30.45,SSE,153,0.0,0.0,60,0.00,,---,0.00,VWS V14.01,2013-01-15 05:11:00,
2013-01-14 23:16:00,11.6,0.4,30.45,SSE,153,0.0,0.0,60,0.00,,---,0.00,VWS V14.01,2013-01-15 05:16:00,
2013-01-14 23:21:00,11.6,0.8,30.45,SSE,153,0.0,0.0,61,0.00,,---,0.00,VWS V14.01,2013-01-15 05:21:00,
2013-01-14 23:26:00,11.6,0.8,30.45,SSE,153,0.0,0.0,61,0.00,,---,0.00,VWS V14.01,2013-01-15 05:26:00,
2013-01-14 23:30:00,12.1,1.6,30.46,SSE,153,0.0,0.0,62,0.00,,---,0.00,VWS V14.01,2013-01-15 05:30:00,
2013-01-14 23:31:00,11.9,1.4,30.45,SSE,153,0.0,0.0,62,0.00,,---,0.00,VWS V14.01,2013-01-15 05:31:00,
2013-01-14 23:36:00,12.6,2.1,30.46,SSE,153,0.0,0.0,62,0.00,,---,0.00,VWS V14.01,2013-01-15 05:36:00,
2013-01-14 23:41:00,12.8,2.2,30.46,SSE,153,0.0,0.0,62,0.00,,---,0.00,VWS V14.01,2013-01-15 05:41:00,
2013-01-14 23:46:00,12.6,2.1,30.46,SSE,153,0.0,0.0,62,0.00,,---,0.00,VWS V14.01,2013-01-15 05:46:00,
2013-01-14 23:51:00,12.6,2.1,30.45,SSE,153,0.0,0.0,62,0.00,,---,0.00,VWS V14.01,2013-01-15 05:51:00,
2013-01-14 23:56:00,12.6,2.1,30.45,SSE,153,0.0,0.0,62,0.00,,---,0.00,VWS V14.01,2013-01-15 05:56:00,